Coal Valley, IL

1:28 PM CST on February 26, 2017 (GMT -0600)
Quad-City International

Weather History for KMLI - September, 2014

Change the Weather History Date:

Sunday, September 28, 2014

  Actual Average Record
Temperature  
Mean Temperature 69 °F 60 °F  
Max Temperature 85 °F 72 °F 95 °F (1953)
Min Temperature 52 °F 48 °F 24 °F (1942)
Degree Days  
Heating Degree Days 0 7  
Month to date heating degree days 113 82  
Since 1 July heating degree days 118 90  
Cooling Degree Days 4 2  
Month to date cooling degree days 67 105  
Year to date cooling degree days 833 988  
Growing Degree Days 18 (Base 50)    
Moisture  
Dew Point 55 °F    
Average Humidity 67    
Maximum Humidity 100    
Minimum Humidity 34    
Precipitation  
Precipitation 0.00 in 0.09 in 1.94 in (1906)
Month to date precipitation 5.63 2.92  
Year to date precipitation 34.20 30.08  
Snow  
Snow 0.00 in 0.00 in - ()
Month to date snowfall 0.0 0.0  
Since 1 July snowfall 0.0 0.0  
Since 1 September snowfall 0.0 0.0  
Snow Depth 0.00 in    
Sea Level Pressure  
Sea Level Pressure 30.12 in    
Wind  
Wind Speed 1 mph (ENE)    
Max Wind Speed 6 mph    
Max Gust Speed 8 mph    
Visibility 8 miles    
Events      
T = Trace of Precipitation, MM = Missing Value Source: NWS Daily Summary

Daily Weather History Graph

Daily Weather History Graph

Search for Another Location

Airport or City:

Trip Planner

Search our weather history database for the weather conditions in past years. The results will help you decide how hot, cold, wet, or windy it might be!

Date:

Astronomy

Sep. 28, 2014 Rise Set
Actual Time 6:55 AM CDT 6:48 PM CDT
Civil Twilight 6:28 AM CDT 7:16 PM CDT
Nautical Twilight 5:55 AM CDT 7:48 PM CDT
Astronomical Twilight 5:23 AM CDT 8:21 PM CDT
Moon 11:12 AM CDT (9/28) 9:30 PM CDT (9/28)
Length of Visible Light 12h 48m
Length of Day
11h 53m
Waxing Crescent, 19% of the Moon is Illuminated
Sep 28
Waxing Crescent
Oct 1
First Quarter
Oct 8
Full
Oct 15
Last Quarter
Oct 23
New

Hourly Weather History & Observations

Time (CDT) Temp. Heat Index Dew Point Humidity Pressure Visibility Wind Dir Wind Speed Gust Speed Precip Events Conditions
12:52 AM 57.9 °F - 54.0 °F 87% 30.14 in 10.0 mi Calm Calm - N/A   Clear
1:52 AM 57.0 °F - 54.0 °F 89% 30.15 in 10.0 mi Calm Calm - N/A   Clear
2:52 AM 55.9 °F - 54.0 °F 93% 30.14 in 8.0 mi Calm Calm - N/A   Clear
3:52 AM 54.0 °F - 52.0 °F 93% 30.14 in 8.0 mi East 3.5 mph - N/A   Clear
4:52 AM 55.0 °F - 52.0 °F 89% 30.14 in 7.0 mi Calm Calm - N/A   Clear
5:52 AM 55.0 °F - 53.1 °F 93% 30.15 in 6.0 mi Calm Calm - N/A   Clear
6:31 AM 53.1 °F - 51.1 °F 93% 30.16 in 1.2 mi Calm Calm - N/A   Clear
6:38 AM 53.1 °F - 51.1 °F 93% 30.16 in 6.0 mi Calm Calm - N/A   Clear
6:52 AM 53.1 °F - 51.1 °F 93% 30.16 in 6.0 mi Calm Calm - N/A   Clear
7:19 AM 53.1 °F - 50.0 °F 89% 30.16 in 1.8 mi Calm Calm - N/A   Clear
7:26 AM 53.1 °F - 51.1 °F 93% 30.16 in 7.0 mi Calm Calm - N/A   Clear
7:52 AM 55.0 °F - 53.1 °F 93% 30.16 in 7.0 mi ESE 3.5 mph - N/A   Clear
8:52 AM 61.0 °F - 57.0 °F 87% 30.16 in 5.0 mi East 3.5 mph - N/A   Clear
9:52 AM 66.9 °F - 57.9 °F 73% 30.16 in 8.0 mi Calm Calm - N/A   Clear
10:52 AM 72.0 °F - 57.9 °F 61% 30.16 in 10.0 mi Calm Calm - N/A   Clear
11:52 AM 75.9 °F - 55.0 °F 48% 30.14 in 10.0 mi Calm Calm - N/A   Clear
12:52 PM 80.1 °F 80.4 °F 57.0 °F 45% 30.13 in 10.0 mi NE 3.5 mph - N/A   Clear
1:52 PM 82.0 °F 81.6 °F 55.9 °F 41% 30.11 in 10.0 mi Calm Calm - N/A   Clear
2:52 PM 84.0 °F 82.5 °F 53.1 °F 34% 30.08 in 10.0 mi Calm Calm - N/A   Clear
3:52 PM 84.0 °F 82.9 °F 55.0 °F 37% 30.07 in 10.0 mi NNE 4.6 mph - N/A   Clear
4:52 PM 84.0 °F 82.9 °F 55.0 °F 37% 30.06 in 10.0 mi Calm Calm - N/A   Clear
5:52 PM 82.0 °F 81.3 °F 54.0 °F 38% 30.05 in 10.0 mi Calm Calm - N/A   Clear
6:52 PM 70.0 °F - 59.0 °F 68% 30.06 in 10.0 mi Calm Calm - N/A   Clear
7:52 PM 64.9 °F - 57.9 °F 78% 30.06 in 10.0 mi Calm Calm - N/A   Clear
8:52 PM 63.0 °F - 57.9 °F 84% 30.07 in 10.0 mi Calm Calm - N/A   Clear
9:52 PM 61.0 °F - 57.0 °F 87% 30.07 in 9.0 mi West 3.5 mph - N/A   Clear
10:52 PM 57.9 °F - 57.0 °F 97% 30.06 in 8.0 mi Calm Calm - N/A   Clear
11:52 PM 57.9 °F - 55.0 °F 90% 30.06 in 7.0 mi Calm Calm - N/A   Clear